Regional Weather Roundup
Issued by NWS

Home | Current Version | Previous Version | Text Only | Print | Product List | Glossary Off
Versions: 1 2 3 4 5 6 7 8 9 10 11 12 13 14 15 16 17 18 19 20 21 22 23 24 25 26 27 28 29 30 31 32 33 34 35 36 37 38 39 40 41 42 43 44 45 46 47 48 49 50

000
ASUS45 KABQ 301901
RWRNM
NEW MEXICO REGIONAL WEATHER ROUNDUP
NATIONAL WEATHER SERVICE ALBUQUERQUE NM
100 PM MDT SUN AUG 30 2015

NOTE: "FAIR" MEANS FEW OR NO CLOUDS BELOW 12,000 FEET AGL WITH NO
       SIGNIFICANT WEATHER OR OBSTRUCTIONS TO VISION.

      THIS PRODUCT IS RELEASED AS TWO VERSIONS.  ONE VERSION NEAR
      THE TOP OF THE HOUR CONTAINING PRELIMINARY DATA FROM ALBUQUERQUE
      AND OTHER STATIONS.  A FINAL VERSION WITH ADDITIONAL DATA IS
      ISSUED ABOUT 10 MINUTES AFTER THE HOUR.

NMZ501-503-504-510>518-302000-
NORTHWEST PLATEAU/NORTHCENTRAL MOUNTAINS

CITY           SKY/WX    TMP DP  RH WIND       PRES   REMARKS
FARMINGTON     SUNNY     85  45  24 NE3       30.18F
SANTA FE       SUNNY     81  48  31 CALM      30.26F
TAOS           SUNNY     81  45  28 SW7       30.33F
ANGEL FIRE     MOCLDY    70  46  42 CALM      30.41F

$$
NMZ402-403-502-505>509-302000-
WESTCENTRAL MOUNTAINS/SOUTHWEST MOUNTAINS

CITY           SKY/WX    TMP DP  RH WIND       PRES   REMARKS
GALLUP         MOSUNNY   83  47  28 MISG      30.26F
GRANTS         MOSUNNY   81  44  27 SW10G22   30.29F
SILVER CITY      N/A     82  52  34 S6        30.25F

$$
NMZ407-409-411-412-302000-
SOUTHERN DESERTS

CITY           SKY/WX    TMP DP  RH WIND       PRES   REMARKS
DEMING         SUNNY     88  55  32 SW7       30.15F
ALAMOGORDO     SUNNY     86  54  32 SW7       30.16F
T OR C         SUNNY     86  51  29 S8        30.17F

$$
NMZ519>523-302000-
CENTRAL VALLEYS/CENTRAL HIGHLANDS

CITY           SKY/WX    TMP DP  RH WIND       PRES   REMARKS
ALBUQUERQUE    MOSUNNY   84  48  28 W8        30.21F
DOUBLE EAGLE   MOSUNNY   84  52  32 SE6       30.25F
MORIARTY ARPT  FAIR      83  47  28 CALM      30.27F
CLINES CORNERS SUNNY     79  48  33 NW9G18    30.31F
BELEN          FAIR      86  47  25 CALM      30.19F
SOCORRO        NOT AVBL

$$
NMZ524>526-539-540-302000-
SOUTHCENTRAL MOUNTAINS

CITY           SKY/WX    TMP DP  RH WIND       PRES   REMARKS
RUIDOSO        NOT AVBL

$$
NMZ527>531-302000-
NORTHEAST HIGHLANDS/NORTHEAST PLAINS

CITY           SKY/WX    TMP DP  RH WIND       PRES   REMARKS
LAS VEGAS      PTSUNNY   84  44  24 MISG      30.28F
RATON          MOSUNNY   86  41  20 SW8       30.21F
CLAYTON        SUNNY     85  56  37 S18G24    30.15F

$$
NMZ532>537-302000-
EASTCENTRAL PLAINS

CITY           SKY/WX    TMP DP  RH WIND       PRES   REMARKS
TUCUMCARI      SUNNY     89  53  29 SW14      30.11F
CANNON AFB     NOT AVBL
CLOVIS AIRPORT SUNNY     82  54  36 SW8       30.18F

$$
NMZ028-029-538-302000-
SOUTHEAST PLAINS

CITY           SKY/WX    TMP DP  RH WIND       PRES   REMARKS
ROSWELL        SUNNY     86  54  33 S10       30.14F
ARTESIA        SUNNY     84  55  37 E8G16     30.14F
CARLSBAD       SUNNY     88  49  25 CALM      30.11
HOBBS          SUNNY     84  52  32 SE12      30.16


$$



USA.gov is the U.S. government's official web portal to all federal, state and local government web resources and services.